Home   Weather   Asheboro   Past weeks
Flag for USA

Past Weather in Asheboro, North Carolina, USA — Yesterday and Last 2 Weeks

Now
82 °F

Sunny.


Feels Like: 81 °F
Forecast: 81 / 53 °F
Wind: 7 mph from South

Location: Asheboro Municipal Airport

Current Time: Jun 15, 2019 at 6:51:40 pm

Latest Report: Jun 15, 2019 at 6:00 pm


Visibility: 10 mi

Pressure: 30.12 "Hg

Humidity: 35%

Dew Point: 52 °F

Location of AsheboroLocation

Past Weather in Asheboro — Graph

°F

Asheboro Temperature Yesterday

Maximum temperature yesterday: 76 °F (at 7:00 pm)
Minimum temperature yesterday: 52 °F (at 6:00 am)
Average temperature yesterday: 65 °F

High & Low Weather Summary for the Past Weeks

 TemperatureHumidityPressure
High86 °F (Jun 2, 5:00 pm)100% (Jun 7, 8:40 am)30.27 "Hg (Jun 7, 8:40 am)
Low52 °F (Jun 14, 6:00 am)27% (Jun 14, 5:40 pm)29.79 "Hg (May 31, 5:00 pm)
Average71 °F75%30.00 "Hg
* Reported May 31 5:00 pm — Jun 15 5:40 pm, Asheboro. Weather by CustomWeather, © 2019

Note: Actual official high and low records may vary slightly from our data, if they occured in-between our weather recording intervals... More about our weather records

Advertising

Asheboro Weather History for the Previous 24 Hours

Scroll right to see more
 ConditionsComfort  
Time TempWeatherWind HumidityBarometerVisibility
5:40 pm
Sat, Jun 15
83 °FSunny.8 mph32%30.13 "Hg10 mi
5:20 pm83 °FSunny.9 mph32%30.14 "Hg10 mi
5:00 pm83 °FSunny.9 mph32%30.14 "Hg10 mi
4:20 pm82 °FSunny.9 mph30%30.14 "Hg10 mi
4:00 pm82 °FSunny.6 mph33%30.14 "Hg10 mi
3:40 pm81 °FSunny.8 mph35%30.15 "Hg10 mi
3:20 pm82 °FSunny.7 mph34%30.16 "Hg10 mi
3:00 pm82 °FSunny.10 mph34%30.16 "Hg10 mi
2:40 pm80 °FSunny.7 mph36%30.17 "Hg10 mi
2:20 pm79 °FSunny.6 mph40%30.18 "Hg10 mi
2:00 pm79 °FSunny.9 mph40%30.19 "Hg10 mi
1:20 pm78 °FSunny.6 mph39%30.20 "Hg10 mi
1:00 pm78 °FSunny.7 mph36%30.22 "Hg10 mi
12:40 pm78 °FSunny.8 mph40%30.23 "Hg10 mi
12:00 pm76 °FSunny.5 mph44%30.25 "Hg10 mi
11:40 am76 °FSunny.9 mph45%30.25 "Hg10 mi
11:20 am75 °FSunny.8 mph44%30.25 "Hg10 mi
11:00 am75 °FSunny.8 mph47%30.25 "Hg10 mi
10:40 am74 °FSunny.10 mph51%30.25 "Hg10 mi
10:20 am72 °FSunny.9 mph60%30.26 "Hg10 mi
10:00 am71 °FSunny.6 mph64%30.27 "Hg10 mi
9:20 am69 °FSunny.6 mph67%30.27 "Hg10 mi
8:40 am67 °FSunny.8 mph70%30.26 "Hg10 mi
8:20 am65 °FSunny.7 mph71%30.25 "Hg10 mi
8:00 am65 °FSunny.6 mph71%30.25 "Hg10 mi
7:40 am63 °FSunny.5 mph72%30.24 "Hg10 mi
7:20 am57 °FSunny.No wind85%30.24 "Hg10 mi
7:00 am55 °FSunny.No wind88%30.23 "Hg10 mi
6:40 am54 °FSunny.No wind90%30.24 "Hg10 mi
6:20 am53 °FSunny.No wind93%30.23 "Hg10 mi
6:00 am53 °FClear.No wind89%30.22 "Hg10 mi
5:40 am53 °FClear.No wind91%30.22 "Hg10 mi
5:20 am56 °FClear.No wind84%30.21 "Hg10 mi
5:00 am55 °FClear.No wind87%30.20 "Hg10 mi
4:40 am54 °FClear.No wind88%30.20 "Hg10 mi
4:20 am55 °FClear.No wind86%30.20 "Hg10 mi
4:00 am55 °FClear.No wind84%30.20 "Hg10 mi
3:20 am53 °FClear.No wind92%30.22 "Hg10 mi
3:00 am53 °FClear.No wind91%30.22 "Hg10 mi
2:40 am53 °FClear.No wind92%30.22 "Hg10 mi
2:20 am54 °FClear.No wind90%30.22 "Hg10 mi
2:00 am54 °FClear.No wind89%30.22 "Hg10 mi
1:40 am55 °FClear.No wind86%30.22 "Hg10 mi
1:00 am56 °FClear.No wind83%30.22 "Hg10 mi
12:40 am58 °FClear.No wind75%30.22 "Hg10 mi
12:20 am58 °FClear.3 mph78%30.22 "Hg10 mi
12:00 am59 °FClear.No wind75%30.22 "Hg10 mi
11:40 pm
Fri, Jun 14
59 °FClear.No wind75%30.22 "Hg10 mi
11:20 pm59 °FClear.No wind76%30.22 "Hg10 mi
11:00 pm60 °FClear.No wind74%30.22 "Hg10 mi
10:20 pm61 °FClear.No wind72%30.22 "Hg10 mi
10:00 pm62 °FClear.No wind72%30.22 "Hg10 mi
9:40 pm62 °FClear.No wind72%30.21 "Hg10 mi
9:00 pm65 °FClear.No wind72%30.20 "Hg10 mi
8:40 pm66 °FClear.No wind67%30.19 "Hg10 mi
8:20 pm69 °FSunny.No wind57%30.18 "Hg10 mi
8:00 pm71 °FSunny.No wind50%30.18 "Hg10 mi
7:40 pm74 °FSunny.No wind40%30.17 "Hg10 mi
7:00 pm76 °FSunny.5 mph29%30.17 "Hg10 mi
6:40 pm75 °FSunny.No wind30%30.17 "Hg10 mi
6:20 pm75 °FSunny.No wind29%30.18 "Hg10 mi
6:00 pm76 °FSunny.3 mph29%30.18 "Hg10 mi
Weather by CustomWeather, © 2019

See weather overview